Location: Gwatt
(46.7204°N, 7.6223°E)
Time: 15:04:30
(UTC+00:00)

deb Explorer IX - Pass Details

Date: 22 January 2021
Orbit: 537 x 1102 km, 38.8° (Epoch: 01 March)

Event Time Altitude Azimuth Distance (km) Brightness Sun altitude
Rises 20:41:06 0° 260° (W) 3,340 ? -44.4°
Enters shadow 20:43:10 - 254° (WSW) 2,592 ? -44.7°
Reaches altitude 10° 20:44:00 10° 251° (WSW) 2,302 - -44.8°
Maximum altitude 20:48:40 31° 190° (S) 1,190 - -45.6°
Drops below altitude 10° 20:52:45 10° 128° (SE) 2,000 - -46.2°
Sets 20:55:07 0° 117° (ESE) 2,835 - -46.6°
